Location: Turtle Rock Observatory
(36.6913°N, 81.9708°W)
Time: 12:49:26
(UTC-05:00)

Daily predictions for brighter satellites

Satellite Brightness Start Highest point End
(mag) Time Altitude Azimuth Time Altitude Azimuth Time Altitude Azimuth
Cosmos 2056 Rocket 3.6 18:31:20 10° NNW 18:36:43 64° ENE 18:42:05 10° SSE
SPOT 3 Rocket 3.9 18:33:52 10° SE 18:38:47 45° ENE 18:43:44 10° N
Iridium 2 4.0 18:35:12 10° N 18:39:01 73° W 18:42:48 10° S
ORS 1 (USA 231) 4.3 18:38:00 10° WNW 18:40:28 65° SSW 18:42:55 10° ESE
Meteor 1-27 Rocket 4.1 18:36:31 10° N 18:42:25 80° W 18:48:20 10° S
Cosmos 1452 Rocket 4.4 18:38:22 10° N 18:42:51 27° ENE 18:47:17 10° ESE
Cosmos 1725 Rocket 4.4 18:37:23 10° NNW 18:43:40 71° W 18:49:51 10° S
Landsat 4 3.6 18:43:14 10° NNE 18:46:58 69° ESE 18:50:42 10° S
MONITOR-E 4.1 18:47:49 10° SSE 18:50:50 88° WSW 18:53:52 10° NNW
ALOS 2.4 18:46:17 10° S 18:50:57 83° WSW 18:55:39 10° NNW
Cosmos 1674 Rocket 4.0 18:48:07 10° N 18:52:12 39° E 18:56:14 10° SSE
Cosmos 158 Rocket 4.2 18:50:07 10° S 18:54:42 41° ESE 18:59:15 10° NNE
IUS-18 SRM-1 4.1 18:55:18 10° SSW 18:56:22 12° S 18:57:37 10° SSE
Iridium 4 Rocket 4.1 18:52:29 10° NNE 18:56:35 27° E 19:00:23 10° SE
ATLAS 3B R/B 4.3 18:50:13 10° WSW 18:56:45 35° NW 19:03:04 10° NNE
MOS 1 4.3 18:51:13 10° SSE 18:56:52 88° ENE 19:02:34 10° NNW
Cosmos 1908 Rocket 4.3 18:53:00 10° SSE 18:57:00 33° E 19:01:00 10° NNE
Cosmos 405 2.8 18:54:09 10° S 18:57:38 76° E 19:01:09 10° NNE
NOSS 3-2 (A) 4.4 18:52:21 10° SW 18:58:00 48° NW 19:04:16 10° NNE
YAOGAN 1 3.8 18:54:02 10° S 18:58:11 46° W 19:02:21 10° NNW
Lacrosse 5 1.8 18:53:36 10° NW 18:58:41 86° NE 19:03:43 10° SE
NOAA 12 4.1 18:53:51 10° SSE 18:59:09 90° ENE 19:04:30 10° NNW
Cosmos 2219 Rocket 3.4 18:54:32 10° NW 18:59:56 46° WSW 19:05:17 10° S
Cosmos 44 4.2 18:55:45 10° N 19:00:18 33° NE 19:05:00 10° ESE
SJ-6B 3.9 19:00:45 10° ESE 19:03:42 22° ENE 19:06:42 10° NNE
NOSS 0 Rocket 4.4 18:58:12 10° NNW 19:04:20 66° WSW 19:10:28 10° S
Cosmos 1733 Rocket 3.2 19:00:16 10° S 19:04:34 77° W 19:08:53 10° N
SL-8 R/B 3.8 19:01:24 10° WSW 19:06:10 77° NW 19:10:35 12° NE
Okean 3 3.6 19:04:28 10° N 19:08:30 47° E 19:12:32 10° SSE
CZ-4 R/B 4.3 19:05:21 10° SSW 19:08:33 22° W 19:11:44 10° NW
Cosmos 921 Rocket 4.5 19:05:40 10° NNE 19:08:54 19° ENE 19:10:05 17° E
Cosmos 2227 Rocket 3.0 19:05:06 10° SW 19:10:37 54° WNW 19:16:10 10° NNE
Cosmos 2237 Rocket 2.4 19:08:34 10° NNW 19:14:11 74° WSW 19:19:46 10° SSE
Meteor 1-14 Rocket 4.2 19:09:09 10° S 19:14:51 74° E 19:20:44 10° NNE
SL-16 R/B 2.5 19:11:54 10° N 19:17:21 46° ENE 19:22:45 10° SE
Resurs 01 Rocket 3.3 19:19:14 16° NE 19:19:14 16° NE 19:21:07 10° NNE
Okean 1 4.1 19:15:46 10° NNE 19:19:17 29° ENE 19:21:38 16° SE
H-2A R/B 2.8 19:16:16 10° SSE 19:20:10 87° WSW 19:24:06 10° NNW
Cosmos 2297 Rocket 3.2 19:19:19 10° SW 19:24:45 48° WNW 19:30:14 10° N
Cosmos 1975 Rocket 4.0 19:22:36 10° NNE 19:26:24 27° ENE 19:26:50 26° E
Meteor 1-20 Rocket 4.2 19:22:15 10° S 19:27:54 79° E 19:33:42 10° NNE
Cosmos 468 4.4 19:25:36 10° SSW 19:30:52 87° ESE 19:36:10 10° NNE
Shenzhou-11 Module 3.9 19:28:50 10° W 19:31:25 26° SW 19:33:13 15° SSE
CZ-3 Stage 3 3.0 19:28:58 10° W 19:32:55 30° SSW 19:34:12 21° SSE
Thor Agena Rocket 3.5 19:28:45 10° NNE 19:33:46 58° ESE 19:38:43 10° S
CZ-2D R/B 3.5 19:32:53 20° SE 19:35:17 46° ENE 19:39:02 10° N
Envisat 3.2 19:30:30 10° SE 19:35:18 45° ENE 19:40:07 10° N
Tsikada Rocket 4.2 19:29:51 10° SSE 19:35:55 48° E 19:42:03 10° NNE
OAO 2 Rocket 3.5 19:33:13 10° WSW 19:38:02 55° SSE 19:39:55 34° ESE
SeaSat 1 2.6 19:35:40 23° ESE 19:38:25 48° ENE 19:43:09 10° NNW
USA 32 3.9 19:33:17 10° S 19:38:28 70° E 19:43:41 10° N
ERS-2 2.5 19:36:38 10° S 19:40:17 66° WSW 19:43:58 10° NNW
ARGOS Delta rocket 3.8 19:35:51 10° NNE 19:40:39 59° E 19:45:10 10° S
USA 215 3.3 19:34:23 10° NE 19:40:56 80° NW 19:47:28 10° SW
Cosmos 1269 Rocket 4.0 19:36:09 10° S 19:41:19 60° ESE 19:46:32 10° NNE
Cosmos 1812 3.7 19:37:47 10° NNW 19:41:32 48° W 19:45:15 10° SSW
Meteor 1-18 Rocket 4.1 19:36:00 10° N 19:41:37 83° E 19:47:09 10° S
Cosmos 1633 3.6 19:41:23 10° SSW 19:44:48 46° W 19:48:16 10° N
HJ-1C 3.4 19:42:22 10° S 19:45:46 82° WSW 19:49:12 10° NNW
Cosmos 1602 3.8 19:45:36 10° S 19:49:00 53° ESE 19:49:00 53° ESE
CZ-3C R/B 3.9 19:46:53 10° S 19:50:43 19° SE 19:52:23 18° SE
Sich 1 Rocket 3.7 19:46:40 10° S 19:51:11 76° W 19:55:40 10° N
Cosmos 1378 Rocket 3.7 19:46:59 10° NNW 19:51:23 72° W 19:55:47 10° S
Cosmos 1782 Rocket 3.4 19:50:02 10° S 19:54:29 86° E 19:58:55 10° N
COSMOS 2455 3.9 19:50:17 10° SSE 19:53:36 26° SE 19:53:36 26° SE
Cosmos 1464 Rocket 4.2 19:50:25 10° NNW 19:56:30 71° W 20:02:35 10° S
Meteor 1-11 Rocket 4.1 19:52:16 10° SSE 20:01:39 16° NNE 20:02:48 10° NNE
Meteor 1-19 Rocket 4.2 19:53:14 10° N 19:58:36 52° ENE 19:59:39 45° ESE
Cosmos 1437 Rocket 2.9 19:57:18 10° SSW 20:01:19 77° W 20:05:25 10° N
Tiangong 2 2.1 19:59:17 10° WNW 20:01:40 46° W 20:01:40 46° W
Gbstr 26 Del rocket 3.6 19:59:48 10° SSW 20:02:15 36° S 20:02:15 36° S
OAO 1 4.5 19:58:37 10° W 20:04:08 74° S 20:05:13 56° ESE
Meteor 2-4 Rocket 4.4 20:00:34 10° N 20:04:43 36° NE 20:04:43 36° NE
Cosmos 44 Rocket 3.3 20:01:18 10° NNW 20:06:23 87° WSW 20:07:57 46° SSE
Cosmos 2227 4.1 20:05:15 10° SSW 20:10:59 78° ESE 20:13:31 35° NNE
USA 267 4.0 20:11:38 32° NE 20:12:25 33° NNE 20:18:06 10° NNW
CENTAUR R/B 3.5 20:13:42 10° WSW 20:19:23 44° NW 20:25:52 10° NNE
Spot 2 Rocket 4.3 20:27:14 39° N 20:27:14 39° N 20:30:25 10° N
CZ-4C R/B 3.9 20:45:24 10° NNW 20:49:51 31° NNE 20:49:51 31° NNE
Resurs 01 Rocket 3.8 20:56:47 22° NW 20:56:47 22° NW 20:58:37 10° NNW
SL-16 R/B 4.4 20:56:54 10° NW 21:01:04 21° W 21:05:13 10° SSW
